Regional Weather Roundup
Issued by NWS Raleigh/Durham, NC

Home | Current Version | Previous Version | Text Only | Print | Product List | Glossary On
Versions: 1 2 3 4 5 6 7 8 9 10 11 12 13 14 15 16 17 18 19 20 21 22 23 24 25 26 27 28
000
ASUS42 KRAH 210810
RWRRAH
NORTH CAROLINA WEATHER ROUNDUP
NATIONAL WEATHER SERVICE RALEIGH NC
400 AM EDT MON APR 21 2014

NOTE: "FAIR" INDICATES FEW OR NO CLOUDS BELOW 12,000 FEET WITH NO
SIGNIFICANT WEATHER AND/OR OBSTRUCTIONS TO VISIBILITY.

NCZ001-053-055-056-065-067-210900-
WESTERN NORTH CAROLINA

CITY           SKY/WX    TMP DP  RH WIND       PRES   REMARKS
ASHEVILLE      CLEAR     40  36  86 CALM      30.20S
JEFFERSON      CLEAR     43  27  52 CALM      30.19S
MORGANTON      CLEAR     36  36  98 N3        30.23S FOG
HICKORY        CLEAR     47  36  65 CALM      30.19S
RUTHERFORDTON  CLEAR     46  36  67 CALM      30.19S
MOUNT AIRY     CLEAR     47  35  62 CALM      30.19S
BOONE          CLEAR     34  31  89 CALM      30.21S
$$

NCZ021-022-025-041-071-084-088-210900-
CENTRAL NORTH CAROLINA

CITY           SKY/WX    TMP DP  RH WIND       PRES   REMARKS
CHARLOTTE      CLEAR     45  38  76 NE6       30.17F
GREENSBORO     CLEAR     45  34  65 N6        30.18S
WINSTON-SALEM  CLEAR     46  35  65 N6        30.21R
RALEIGH-DURHAM CLEAR     45  34  65 NE3       30.16S
FORT BRAGG     CLEAR     50  37  62 VRB6      30.12S
FAYETTEVILLE   CLEAR     51  38  60 N13       30.11S
CHAPEL HILL    CLEAR     44  35  70 NW5       30.18R
BURLINGTON     CLEAR     43  33  68 N5        30.17F
LAURINBURG     PTCLDY    50  38  63 N8        30.13S
$$

NCZ011-015-027-028-043-044-047-080-103-210900-
NORTHEASTERN NORTH CAROLINA

CITY           SKY/WX    TMP DP  RH WIND       PRES   REMARKS
ROCKY MT-WILSO CLEAR     46  36  68 N9        30.13F
GREENVILLE     MOCLDY    46  37  71 N8        30.12F
WASHINGTON     CLOUDY    50  46  84 N10G16    30.10S
ELIZABETH CITY CLOUDY    48  45  87 N13       30.10F
MANTEO         CLOUDY    48  47  95 N21       30.06F
CAPE HATTERAS  LGT RAIN  49  49 100 N17G29    29.99F FOG
$$

NCZ078-087-090-091-093-098-101-210900-
SOUTHEASTERN NORTH CAROLINA

CITY           SKY/WX    TMP DP  RH WIND       PRES   REMARKS
LUMBERTON      CLEAR     51  41  68 N7        30.10S
GOLDSBORO      CLEAR     49  40  71 N10       30.09F
KINSTON        MOCLDY    48  39  71 N8        30.10F
KENANSVILLE    PTCLDY    48  39  70 N8G16     30.10S
NEW BERN       CLOUDY    52  46  80 N14       30.06F
CHERRY POINT   CLOUDY    51  46  83 N20G28    30.04F
BEAUFORT       CLOUDY    50  48  93 N20G26    30.00F
JACKSONVILLE   CLOUDY    51  46  83 N15       30.05S
WILMINGTON     MOCLDY    52  42  69 N12       30.05S
$$




USA.gov is the U.S. government's official web portal to all federal, state and local government web resources and services.